GFSMW_850_spd_057.txt.gz
Wind_Speed
38 32 37 39 38 35 32 28 26 23 29 24 27 23 16 14 15 14 8 6 6 5 4 10 14 12 13 10 11 11 8 9 12 11 10 5 3 1 2 5 1 3 4
36 35 38 39 40 37 35 30 31 28 27 24 27 21 18 15 12 13 11 12 6 6 9 12 11 7 10 13 12 10 8 12 8 11 4 4 3 6 4 2 4 2 2
38 32 38 41 41 39 36 33 33 31 27 25 28 22 17 17 18 15 13 14 9 4 9 9 8 13 7 12 13 14 7 9 6 3 6 4 5 5 5 4 6 3 2
47 37 40 39 45 42 38 35 35 33 29 27 31 26 24 21 18 17 14 11 12 7 7 5 9 12 9 8 12 14 7 9 7 6 5 3 6 5 6 7 4 5 5
47 47 47 44 42 43 41 37 39 37 33 29 33 30 27 21 21 16 13 14 12 13 7 5 7 11 9 10 14 12 10 11 8 8 4 7 2 0 2 6 6 7 4
42 52 48 43 40 44 43 41 38 42 38 33 33 34 31 27 21 19 18 19 15 10 10 10 5 10 11 12 13 13 12 11 8 8 8 4 1 3 5 6 10 4 2
37 47 46 45 42 45 47 45 42 41 42 37 36 36 34 31 24 22 19 20 17 13 12 14 9 10 12 9 12 12 17 15 11 9 7 8 3 2 4 4 8 2 6
28 42 49 47 46 46 49 49 47 43 43 42 40 36 38 34 30 23 20 19 13 12 13 9 9 9 9 9 9 11 16 18 15 13 11 8 6 3 2 2 3 1 4
21 14 37 50 50 47 50 52 50 46 43 44 42 42 37 38 36 30 26 24 18 14 18 17 13 11 8 10 10 9 13 14 16 17 15 14 10 6 4 4 5 5 7
30 21 20 27 45 49 46 49 49 48 43 43 45 46 43 38 38 35 30 30 27 24 17 20 21 15 10 13 11 10 11 12 11 10 13 16 15 12 7 5 7 7 7
42 33 13 28 31 46 45 48 51 49 47 44 43 46 48 44 39 39 36 31 29 28 22 16 20 17 12 13 16 13 13 10 9 11 10 11 10 17 13 12 9 9 9
46 42 27 38 38 40 49 51 51 52 50 47 45 44 47 49 45 42 41 37 32 29 23 22 22 21 17 15 18 17 17 17 16 15 13 16 12 13 17 16 14 14 13
45 48 29 43 54 43 46 49 52 52 50 49 47 46 45 48 51 47 44 42 39 34 31 24 25 24 22 19 17 19 19 23 20 17 18 18 20 17 15 20 20 19 18
30 37 38 48 56 50 42 47 49 49 48 49 50 49 47 47 48 49 47 45 41 38 39 35 33 32 32 27 23 21 19 20 27 22 20 19 19 20 19 18 18 18 20
15 12 17 31 32 53 46 39 49 52 49 48 51 52 47 45 44 46 46 46 46 43 40 40 41 37 33 29 26 24 23 21 22 25 27 23 22 21 20 20 19 19 19
16 18 27 32 47 47 52 38 40 51 54 51 52 49 46 43 44 44 44 43 46 47 43 42 42 40 37 33 29 27 26 26 24 23 22 25 24 22 20 20 20 21 22
32 32 34 20 43 41 24 40 47 47 53 54 52 50 46 44 43 44 43 44 43 44 48 45 42 42 40 36 31 28 28 27 27 27 24 23 23 24 24 24 24 22 21
40 26 23 5 27 33 24 28 30 38 52 57 56 53 50 46 43 42 44 43 43 42 43 46 45 43 41 37 34 30 28 27 26 26 25 25 23 22 21 21 22 24 23
38 36 23 14 19 4 18 26 27 20 34 44 56 55 52 48 46 43 41 42 42 43 41 41 42 43 41 38 35 32 31 33 32 30 29 28 27 25 22 22 27 29 29
40 39 37 37 29 18 7 11 43 55 41 40 54 53 52 49 48 44 42 40 40 41 42 42 41 41 41 39 37 34 34 35 37 35 34 33 32 30 30 31 30 31 30
42 35 33 35 40 28 17 10 12 34 39 48 44 55 53 51 48 45 43 41 40 40 41 42 42 41 41 40 38 37 37 37 38 38 37 36 34 33 31 31 33 31 18
40 35 31 36 27 22 22 15 23 26 24 24 42 52 53 50 48 47 46 44 42 42 41 42 42 41 40 39 39 38 38 38 40 39 37 36 32 30 26 21 20 19 20
35 35 32 41 26 26 25 27 27 19 12 23 23 49 44 45 46 47 48 46 45 44 43 43 43 43 42 41 40 38 36 36 39 38 38 38 35 28 23 22 22 22 27
25 26 36 34 30 26 25 26 27 28 25 23 30 29 47 42 43 45 46 47 47 46 44 44 44 43 41 40 41 40 38 37 36 36 38 38 37 37 37 36 35 34 30
19 19 22 25 23 25 23 25 28 28 30 31 28 32 40 47 44 46 46 47 48 48 46 45 42 41 42 43 41 41 40 37 33 29 32 37 38 37 37 37 34 30 26
17 19 17 15 19 20 21 22 23 26 30 33 31 35 36 47 47 47 47 45 46 45 44 40 40 41 41 38 35 34 35 30 24 26 31 31 33 36 38 38 36 33 29

GFSMW_850_spd_060.txt.gz
Wind_Speed
37 40 23 27 41 38 34 30 27 31 28 26 22 23 20 19 15 12 10 8 11 9 14 14 13 10 14 14 16 10 8 11 12 8 7 8 7 6 5 4 1 1 2
36 39 27 30 43 40 35 31 25 26 31 27 24 27 23 17 15 14 12 9 9 8 11 12 14 13 15 13 13 13 8 12 13 12 6 4 5 9 10 9 6 1 3
37 36 30 42 48 42 38 33 27 26 29 29 28 25 23 19 19 18 15 13 10 11 11 14 14 14 13 13 14 11 9 12 10 9 4 5 3 5 5 4 5 4 4
34 40 33 44 48 43 38 34 31 29 27 32 28 30 26 26 23 18 17 13 13 10 12 12 10 13 12 15 15 12 11 12 10 7 7 3 3 1 3 3 6 6 4
40 45 39 48 49 45 42 38 34 31 28 28 31 32 27 25 21 20 15 14 14 11 10 11 12 15 13 15 17 15 12 12 9 9 6 4 4 2 1 3 5 8 5
48 41 41 46 48 47 44 41 37 34 30 31 31 35 30 26 23 22 20 17 16 17 12 11 10 16 13 14 18 17 13 13 10 9 6 2 2 3 5 5 4 6 4
43 41 37 45 49 51 48 44 40 36 32 35 33 37 34 29 23 25 21 20 21 18 16 15 12 12 15 16 18 17 16 15 12 8 6 6 4 2 4 5 6 2 7
40 43 43 46 51 50 50 47 44 40 35 36 36 37 37 33 29 23 25 23 22 17 13 14 14 11 12 12 15 17 19 18 15 12 10 9 6 3 0 3 3 1 3
42 44 47 48 50 51 50 50 47 44 39 36 39 38 39 38 35 28 26 25 23 14 17 14 14 13 11 10 11 14 16 20 18 16 14 12 9 8 5 3 4 5 4
44 39 50 51 52 54 51 50 48 46 42 39 37 41 40 41 40 34 29 27 25 21 17 18 19 17 15 11 11 13 15 18 19 19 18 17 14 13 8 7 5 6 6
47 39 47 48 48 47 49 50 50 49 46 44 40 39 43 42 43 41 37 30 29 25 24 21 17 23 19 14 14 14 16 16 16 15 14 17 18 18 14 11 10 9 11
24 33 39 48 45 45 43 45 50 50 47 44 44 42 41 45 44 44 43 38 32 30 29 27 22 24 23 18 15 17 17 17 16 14 14 14 16 18 20 18 15 14 14
32 34 35 21 18 30 49 47 46 49 49 47 45 45 43 44 48 46 45 43 38 34 33 33 29 24 24 21 16 16 18 19 19 17 17 15 15 17 16 19 20 19 17
13 20 24 17 11 14 25 34 44 47 49 49 48 46 45 44 44 48 48 46 44 40 37 33 32 29 27 26 21 17 16 19 21 22 20 18 18 18 20 19 18 19 21
3 1 14 24 28 25 23 27 31 41 48 48 50 49 47 44 43 43 47 50 48 47 44 40 37 32 31 30 28 24 22 20 21 23 25 23 21 21 19 20 20 19 20
11 19 26 20 32 31 35 32 30 28 42 46 49 49 48 47 46 43 43 46 50 52 49 48 44 41 38 34 31 28 25 23 23 23 24 23 25 25 23 23 22 20 20
23 28 29 26 34 17 8 29 34 31 36 43 47 47 47 46 46 44 42 44 45 48 53 52 48 46 44 43 39 34 31 28 26 25 25 24 24 23 23 24 23 23 22
25 28 31 27 28 22 12 12 9 28 36 36 39 44 47 45 44 42 41 43 44 46 49 51 52 50 48 45 42 38 35 32 30 28 26 24 23 23 23 22 23 24 23
28 29 29 28 28 27 27 19 16 21 25 43 42 34 42 45 48 44 40 40 42 43 45 47 46 51 50 46 43 40 39 36 34 30 28 26 24 21 20 22 24 23 23
29 33 30 27 17 20 24 20 15 19 30 36 43 39 32 40 52 49 45 41 41 41 42 43 46 46 46 46 42 40 40 39 37 34 32 30 28 25 23 25 26 28 26
28 33 33 25 22 17 17 18 20 22 21 27 36 38 36 32 49 53 52 45 43 42 41 42 42 44 44 43 41 38 38 39 38 38 36 33 30 29 27 28 29 31 28
33 32 34 24 22 22 20 21 21 23 22 18 23 25 31 35 41 52 56 53 48 45 43 43 42 41 41 40 38 37 37 37 39 39 35 33 31 29 29 30 30 29 27
38 37 36 30 23 23 22 23 25 20 18 19 24 37 40 42 50 49 56 57 52 50 48 46 45 44 41 40 38 36 35 35 38 38 36 32 31 30 29 29 28 25 27
35 37 34 33 31 26 24 22 23 23 17 33 26 31 35 37 50 53 57 56 54 54 52 50 48 45 43 42 39 38 36 34 35 35 35 33 32 32 32 30 29 28 28
28 31 32 31 35 30 30 24 24 24 24 29 33 28 29 35 39 47 54 54 55 52 52 53 49 46 45 44 39 38 37 34 33 31 33 36 37 37 37 36 34 34 35
24 28 27 27 31 32 31 30 28 23 25 26 30 28 26 31 32 36 49 50 52 51 49 50 47 43 40 38 35 33 32 30 26 29 33 38 39 38 36 36 36 35 34

GFSMW_850_spd_063.txt.gz
Wind_Speed
37 32 33 29 31 32 34 32 28 26 25 22 23 21 15 15 14 11 9 6 6 8 10 12 13 12 10 11 9 5 5 8 7 5 3 5 8 6 5 4 3 2 3
34 34 32 26 29 34 38 35 30 29 28 24 24 20 17 16 11 11 9 6 7 6 11 13 13 13 12 12 14 8 7 8 9 7 5 2 7 9 8 8 7 4 5
33 33 33 31 29 38 42 36 32 28 29 29 26 21 19 18 15 15 11 10 9 7 8 12 13 11 14 12 13 10 7 9 11 10 5 3 3 3 3 4 3 3 3
36 34 37 36 32 37 45 38 34 28 25 30 29 25 26 23 18 14 12 10 10 10 9 12 13 12 13 13 12 12 10 12 10 11 7 4 2 3 3 3 2 3 0
40 41 38 39 35 32 46 42 37 30 26 26 29 27 26 26 20 16 15 12 12 11 12 10 10 12 13 13 15 14 10 12 11 9 4 2 1 3 3 4 4 4 0
32 31 32 35 35 38 48 45 40 33 27 24 28 28 29 26 24 19 19 17 13 13 13 11 11 14 13 12 15 15 12 11 11 9 5 3 1 2 7 6 2 4 4
33 35 32 40 41 44 51 49 44 37 32 28 27 30 29 30 26 22 20 21 18 15 14 12 12 12 15 12 16 17 16 14 11 8 6 5 3 1 4 6 6 5 4
39 36 40 43 47 46 53 52 47 41 37 32 28 29 30 31 28 25 21 22 20 17 11 13 14 10 12 14 14 17 17 15 13 10 8 7 5 3 2 2 4 4 5
39 44 42 44 48 47 54 53 48 45 40 34 28 30 31 35 32 28 21 22 22 19 17 15 13 14 12 15 15 16 17 18 17 14 13 10 8 6 5 4 4 5 6
34 41 42 45 47 49 51 53 50 47 42 37 33 27 32 35 36 31 28 22 22 22 22 18 15 14 15 14 15 13 15 18 21 19 16 15 13 12 10 7 6 6 7
31 33 44 36 45 47 50 53 52 50 47 42 36 32 29 33 36 35 33 29 23 22 21 18 17 18 17 16 15 15 15 16 18 21 21 19 18 17 15 13 11 10 10
28 27 32 29 28 38 45 50 52 51 50 45 41 37 31 29 34 37 38 35 30 26 25 23 22 20 19 21 20 17 17 17 18 17 18 16 16 17 18 18 16 14 14
12 11 19 20 17 20 33 41 46 49 50 49 46 42 39 34 32 35 39 40 37 33 29 28 27 25 23 22 24 21 18 19 18 18 18 18 15 17 17 18 20 20 19
19 14 16 11 4 8 10 22 34 43 47 49 48 47 44 40 34 32 36 40 42 40 37 33 29 28 27 25 23 22 19 18 20 20 21 20 19 19 18 19 17 17 18
31 23 8 19 17 19 12 18 24 33 37 43 46 48 47 43 38 36 33 35 42 42 43 40 36 32 29 28 29 26 24 22 19 19 21 23 23 21 20 19 19 19 19
28 28 25 12 23 25 17 14 27 31 30 34 39 42 42 46 43 38 38 36 35 41 44 45 44 41 38 34 32 31 29 27 26 24 23 23 23 25 25 23 22 21 21
26 26 25 22 19 23 20 13 8 24 36 27 30 34 38 44 43 40 40 39 38 37 40 45 48 47 45 42 38 37 34 32 30 27 26 25 25 25 25 24 25 25 24
27 27 26 22 15 14 19 16 6 4 24 28 27 30 34 40 40 40 40 39 37 38 40 41 44 48 50 47 45 42 40 41 38 35 32 30 28 26 25 25 25 24 24
27 28 26 24 23 16 20 20 11 3 4 16 24 27 34 38 39 40 41 38 35 35 38 40 42 43 46 48 47 45 43 43 42 40 37 35 32 27 24 24 25 24 25
29 29 29 28 25 23 18 19 19 10 9 10 18 20 33 39 39 38 37 38 34 34 34 36 37 41 42 44 44 44 46 46 46 44 42 38 35 30 26 26 26 27 26
35 32 30 31 27 26 25 20 18 20 15 10 11 20 20 30 36 36 37 34 31 32 35 37 36 34 37 41 42 42 40 45 46 46 44 40 35 32 29 28 29 30 26
36 34 34 32 32 28 29 27 23 19 21 16 8 7 14 25 27 29 30 31 29 35 34 36 40 38 34 34 37 40 41 40 43 45 44 40 36 32 30 30 30 29 28
35 33 35 35 36 32 28 33 29 26 23 19 17 17 14 16 26 28 30 31 33 35 36 39 41 42 38 36 34 34 36 36 39 40 41 40 36 34 34 33 31 29 30
32 32 30 35 36 37 31 31 36 31 27 25 24 20 22 17 16 22 23 25 34 38 39 40 43 43 41 39 37 35 33 33 36 38 37 38 37 35 35 34 32 31 30
31 33 31 33 36 34 35 31 36 36 34 28 27 24 25 21 17 18 20 25 29 35 39 42 42 42 42 41 37 33 33 32 33 35 38 39 40 40 39 37 35 34 32
26 33 34 32 35 33 32 32 34 37 38 34 31 27 26 24 19 17 24 24 27 32 40 42 43 42 39 37 37 35 32 28 25 28 34 39 40 40 40 39 38 37 36

GFSMW_850_spd_069.txt.gz
Wind_Speed
27 25 30 26 23 23 25 24 24 24 24 25 23 19 14 11 10 8 7 5 5 5 6 6 10 10 9 7 6 6 5 5 4 3 4 3 3 4 6 6 7 7 7
27 26 28 28 27 27 26 25 24 24 25 23 21 20 15 12 10 8 7 5 4 5 8 7 9 9 8 8 7 4 5 4 4 3 7 5 4 8 5 5 4 3 3
31 29 27 28 31 31 29 26 24 23 23 23 21 19 14 13 13 11 8 6 5 4 8 10 10 7 6 7 6 3 3 4 5 0 4 5 5 7 7 6 3 2 3
29 30 29 29 32 33 31 29 25 23 22 23 24 20 18 18 15 10 8 7 6 5 6 9 9 5 10 8 7 6 3 3 4 1 5 5 5 5 4 7 5 2 1
31 32 32 32 33 34 32 31 30 28 25 24 24 21 20 19 15 11 10 8 8 7 6 7 10 9 8 9 8 8 4 6 3 2 4 6 5 8 6 6 6 7 6
30 31 32 31 35 33 32 31 31 31 29 26 24 23 22 20 16 15 12 12 9 8 8 8 9 9 9 10 9 10 9 6 5 5 3 2 3 5 7 6 7 8 7
30 30 34 34 34 36 35 32 27 30 32 30 27 24 25 22 19 17 15 12 12 9 10 10 9 8 8 8 7 11 11 8 6 4 3 2 2 3 7 8 7 6 8
30 32 32 34 37 38 37 34 30 26 32 33 29 26 26 26 23 19 19 16 14 11 9 8 8 6 8 9 8 9 12 12 8 6 4 3 2 1 3 7 7 5 5
27 29 29 32 34 39 41 39 34 31 27 34 32 29 28 28 27 23 20 18 17 15 13 11 7 9 8 6 10 9 10 11 10 9 8 6 5 4 4 5 6 6 4
19 22 27 27 30 34 36 37 36 33 30 31 34 32 30 27 27 25 23 23 20 18 16 14 12 10 9 10 7 9 9 11 11 11 12 10 9 8 8 7 7 7 6
6 14 17 20 23 27 28 33 35 36 35 33 35 36 34 31 27 26 25 24 23 20 18 16 14 13 12 11 10 8 9 10 11 13 15 14 13 12 12 12 11 11 11
20 14 4 10 15 23 26 31 32 34 36 35 32 37 36 35 32 26 26 27 26 25 20 18 16 15 16 15 13 11 10 8 9 10 12 13 15 15 14 14 14 14 14
28 23 15 13 8 4 12 20 26 28 31 35 36 34 42 39 36 30 26 28 31 29 26 23 21 19 18 16 14 13 14 12 11 11 12 12 14 14 13 12 13 12 14
28 28 27 21 12 4 4 9 18 18 20 25 29 32 35 42 40 36 31 28 28 32 32 30 26 24 23 22 19 17 15 14 15 13 14 15 15 15 14 14 14 15 16
28 26 25 24 22 15 9 2 10 20 22 22 25 28 30 33 40 41 38 34 32 30 32 34 33 30 28 27 25 21 19 17 16 16 14 13 15 15 17 18 18 17 17
21 23 21 22 22 21 15 10 7 7 18 26 27 26 31 32 34 36 38 39 38 35 33 35 37 37 36 33 30 26 25 23 22 21 19 18 17 16 15 16 18 19 21
20 21 21 20 21 21 18 14 10 9 7 18 27 29 29 30 31 32 34 36 37 38 38 38 36 38 40 40 37 33 30 28 25 24 23 23 22 20 18 17 17 18 20
22 23 23 23 19 19 17 15 13 10 10 13 16 28 30 28 28 29 31 31 32 34 35 38 39 39 38 40 41 39 38 37 34 32 29 28 26 25 22 21 21 22 22
23 23 23 25 25 22 20 16 15 14 8 8 9 14 21 25 25 27 29 28 30 32 33 35 37 39 40 38 37 39 41 42 42 40 38 36 34 31 28 27 28 28 28
26 27 27 27 27 25 24 21 17 14 14 12 8 8 14 21 24 27 29 30 30 30 30 32 34 35 36 37 37 37 38 42 45 46 45 42 40 36 33 32 31 33 31
27 28 28 26 25 27 28 26 22 19 16 16 14 10 12 16 26 28 27 28 29 28 31 32 32 32 33 33 34 36 39 42 42 43 44 45 42 39 38 36 36 37 32
25 23 25 30 26 26 27 29 29 23 21 19 19 16 12 11 15 21 24 25 26 27 28 31 31 33 35 35 35 35 36 38 41 40 40 43 42 39 37 38 39 37 34
25 24 24 26 28 25 25 29 30 30 25 24 22 21 20 18 14 16 18 25 26 29 30 30 29 31 32 35 36 36 35 34 35 35 37 38 38 37 36 34 34 33 34
27 25 26 27 29 29 27 29 30 30 31 28 28 25 26 24 19 17 16 20 23 28 31 32 32 29 27 31 34 36 36 34 32 31 29 31 34 35 35 35 35 35 36
30 29 26 28 30 30 33 32 35 33 32 33 31 31 28 28 25 22 20 20 21 23 28 28 27 27 29 31 32 32 33 33 32 31 31 32 34 35 34 34 34 34 37
30 31 31 30 30 33 34 36 35 33 32 34 34 34 31 29 28 28 27 25 22 22 23 31 35 31 35 34 31 28 29 26 23 24 31 35 37 37 36 37 34 33 36

GFSMW_850_spd_072.txt.gz
Wind_Speed
26 25 23 20 17 17 18 19 18 18 19 17 15 13 9 8 7 6 5 5 6 5 7 7 9 9 7 7 6 7 7 4 4 3 2 2 2 1 1 1 1 0 2
27 27 24 21 19 18 19 19 19 19 21 17 15 12 11 8 7 6 6 5 6 7 7 9 9 10 7 7 8 6 6 4 4 4 3 3 4 4 2 1 1 1 2
28 28 26 24 21 20 20 20 20 20 22 17 17 13 11 9 9 7 6 6 7 6 9 10 9 11 10 7 7 5 6 4 2 4 4 1 6 3 4 4 3 3 3
27 29 28 27 25 22 20 19 20 19 20 21 16 14 11 8 8 7 8 6 7 5 9 12 11 9 8 9 7 5 4 6 5 2 3 4 3 3 8 5 3 4 4
26 29 30 28 26 24 21 20 20 20 19 19 17 15 14 10 9 8 10 8 7 7 7 11 12 8 8 9 9 8 5 6 5 2 2 3 4 7 1 8 6 6 5
25 27 28 28 29 26 24 21 22 24 22 20 20 19 14 13 11 11 9 8 5 8 9 9 12 11 10 10 9 8 6 6 6 3 1 1 2 6 5 6 5 6 4
25 27 28 30 30 29 26 23 22 25 25 24 21 20 18 16 14 12 10 9 8 7 9 9 10 8 8 10 11 10 9 7 4 5 3 2 3 5 5 4 4 4 4
26 26 28 29 30 29 26 25 22 22 23 27 26 23 21 16 16 13 12 11 9 8 9 10 9 9 10 10 10 7 10 10 6 6 7 4 3 1 3 4 2 3 3
23 24 25 26 28 29 28 26 23 24 22 21 26 26 24 20 17 16 14 13 12 11 11 10 10 10 9 10 10 9 12 11 10 7 7 6 6 3 1 1 2 0 1
14 19 22 22 24 26 27 25 24 24 25 23 20 25 26 24 21 19 17 15 14 14 14 14 13 11 11 10 9 10 10 12 11 10 11 10 8 7 5 4 4 3 3
15 3 4 18 18 20 23 24 25 24 23 24 23 22 24 26 23 22 20 19 17 16 17 17 15 14 13 12 12 11 11 10 11 12 12 12 13 9 9 8 7 7 7
23 20 12 10 11 15 18 20 21 23 23 22 23 25 25 24 22 24 23 20 20 18 18 17 18 17 15 15 14 13 11 11 11 11 12 13 12 16 14 11 11 10 10
23 23 18 15 14 10 6 11 16 18 19 19 21 26 26 26 26 25 25 24 22 22 19 18 18 17 17 17 17 15 14 13 12 11 12 12 13 15 13 13 12 10 10
22 23 26 23 17 9 10 11 3 6 14 19 18 20 26 28 24 26 28 27 26 24 25 23 20 20 18 18 18 17 16 15 15 15 14 14 14 14 13 13 13 12 13
21 21 22 23 22 18 11 8 7 2 5 11 16 18 19 20 23 24 27 30 29 28 26 27 26 24 20 20 21 20 19 18 17 16 17 15 16 17 16 14 14 14 14
20 19 18 20 21 21 17 9 7 3 3 8 14 16 19 18 20 22 26 29 31 33 32 29 28 28 27 26 27 25 20 20 19 18 19 18 18 16 16 17 18 20 19
16 17 20 20 19 19 18 17 12 7 3 4 7 15 20 19 19 20 21 26 32 33 35 36 33 33 32 32 33 33 28 23 22 22 22 21 21 22 21 20 20 20 20
16 16 16 17 19 16 14 14 14 12 6 4 1 6 11 16 17 20 22 23 25 27 31 34 37 38 37 34 33 36 37 35 31 27 25 25 26 25 24 22 21 22 21
15 15 16 17 18 17 19 16 12 13 13 11 6 6 3 9 12 19 24 25 25 26 27 29 32 36 38 37 36 35 36 38 42 40 38 34 31 31 31 28 25 24 24
17 18 18 17 16 17 18 18 18 18 14 13 12 10 9 9 11 19 26 28 28 29 26 26 29 31 36 37 37 37 37 33 34 39 42 45 44 40 38 37 35 35 32
16 18 19 18 16 17 18 18 18 18 20 18 16 15 14 9 9 13 20 25 27 28 27 29 27 29 31 37 40 39 39 38 34 34 35 36 39 42 43 43 42 42 36
17 16 17 17 19 18 18 19 19 19 22 22 23 20 18 16 15 18 18 17 23 28 29 30 28 28 30 33 38 39 40 41 37 38 34 34 36 39 39 39 41 41 40
18 18 18 19 18 19 19 22 22 23 24 25 25 27 24 23 21 20 20 19 16 22 28 30 27 28 27 29 33 39 40 40 40 39 35 35 36 36 37 39 39 35 36
18 18 20 20 20 18 20 23 24 24 25 27 27 27 30 30 28 23 20 21 18 18 20 24 32 29 27 27 28 29 34 37 39 41 41 39 39 36 34 35 38 38 38
17 18 19 21 24 23 22 21 24 25 27 27 27 26 26 32 31 27 23 22 25 20 19 23 23 28 30 30 29 29 27 23 31 38 39 37 35 34 33 31 31 28 31
20 19 20 23 25 25 25 24 25 25 27 28 27 25 25 26 26 27 27 26 31 31 26 28 28 29 27 28 29 31 35 29 27 28 30 32 32 33 31 30 30 29 31

GFSMW_850_spd_075.txt.gz
Wind_Speed
25 24 23 21 20 18 18 18 17 17 15 12 12 10 9 8 6 6 4 5 2 3 13 7 12 7 7 8 7 7 5 4 1 0 3 2 3 2 3 3 4 3 3
28 25 24 21 20 19 19 19 19 18 17 13 13 10 10 6 10 6 4 4 4 5 6 9 8 8 5 5 5 7 5 5 1 4 3 8 7 6 5 3 4 4 3
28 29 27 24 21 19 20 20 20 18 18 14 13 10 10 5 4 5 4 5 7 6 6 10 7 11 10 6 6 5 2 4 1 4 7 6 2 7 4 5 4 5 4
26 29 29 26 24 19 20 20 20 19 19 17 15 13 11 11 7 6 9 4 6 6 8 9 7 13 6 13 8 5 3 5 5 3 4 6 5 6 9 5 3 5 5
29 29 31 28 25 22 21 20 19 19 18 19 16 13 14 11 9 9 12 10 8 7 8 10 9 10 8 7 8 5 6 4 4 2 4 4 2 2 6 11 6 6 4
32 33 28 30 28 25 23 21 20 19 18 17 21 16 12 10 7 12 8 7 6 6 8 9 12 10 5 7 8 7 7 2 5 2 3 1 2 4 1 5 5 7 4
21 30 30 32 31 29 25 23 21 20 19 17 15 16 14 12 8 8 8 10 12 8 10 11 11 11 12 9 9 10 7 7 4 9 4 3 2 3 2 4 4 7 4
28 27 29 33 32 31 27 25 23 20 20 19 18 16 15 12 14 12 12 7 6 7 13 9 10 9 7 7 10 9 11 9 7 7 7 7 6 4 2 2 1 3 4
32 31 28 32 35 31 30 27 24 21 20 19 19 18 17 16 14 14 11 9 9 17 7 8 9 8 8 8 10 9 10 8 11 8 10 9 7 7 3 2 5 6 4
15 10 16 27 31 32 30 27 25 22 20 18 18 18 19 17 18 15 15 13 12 11 14 11 9 10 10 10 11 9 9 13 9 10 12 13 6 8 6 6 5 7 6
19 11 5 17 15 21 31 30 27 23 20 19 18 17 17 18 17 17 16 16 15 11 12 7 11 10 10 11 11 13 9 11 14 15 10 12 15 8 9 9 9 8 8
20 19 15 18 19 12 16 17 28 26 23 21 19 18 17 17 18 18 18 16 17 16 15 16 14 14 13 13 13 13 11 11 12 13 14 14 13 16 15 9 11 10 11
21 23 22 16 12 11 10 9 11 13 23 23 21 19 18 18 19 20 18 19 17 17 16 16 16 16 16 15 17 16 14 13 13 13 14 14 15 17 14 14 14 13 11
23 22 24 20 15 11 10 11 9 7 8 10 19 20 18 18 18 19 20 19 20 18 18 19 19 17 16 16 16 17 17 15 15 15 15 15 15 17 17 19 17 17 17
20 21 21 22 17 14 8 5 2 4 7 12 9 12 15 17 20 19 20 21 21 21 20 19 21 21 19 18 19 19 18 17 17 17 18 17 18 19 19 16 16 15 15
15 16 16 17 19 19 17 10 4 8 6 8 11 3 9 16 15 17 20 22 23 24 24 23 23 24 23 23 23 23 22 22 21 21 19 20 21 23 22 22 21 19 19
11 12 12 13 13 13 14 13 10 8 2 4 8 11 16 16 17 17 20 20 24 24 26 27 26 27 29 26 29 30 28 25 24 24 25 22 20 24 23 21 21 21 24
9 9 9 11 13 12 13 12 11 10 9 5 3 5 9 12 16 21 20 23 22 23 26 29 30 31 31 32 30 33 36 34 33 29 25 27 28 26 24 26 23 25 26
7 7 9 10 10 9 12 15 11 13 12 11 9 10 4 7 11 17 18 20 23 26 28 27 29 32 34 34 34 34 35 35 38 39 38 36 32 32 30 28 28 28 28
7 8 9 9 8 9 10 11 11 13 11 15 12 10 10 16 15 15 14 13 21 22 23 24 28 31 34 35 36 38 37 34 38 37 40 41 43 43 41 38 36 39 38
8 10 9 9 9 10 11 12 12 11 13 14 15 15 14 13 12 17 19 20 16 21 25 25 29 32 33 33 36 37 37 39 35 36 35 35 36 37 40 44 44 46 40
7 8 10 11 12 13 13 13 14 15 16 18 19 18 18 18 18 19 19 20 19 21 21 26 26 31 31 35 34 37 37 41 39 39 35 33 33 35 35 35 36 36 37
8 9 9 11 12 13 14 16 16 17 19 20 22 23 22 22 23 23 23 20 19 21 22 22 23 30 31 32 29 33 37 38 40 42 40 36 37 35 32 33 35 35 35
9 11 12 13 13 13 15 17 19 20 21 23 25 25 25 25 24 25 25 23 19 19 18 21 15 24 27 31 29 30 35 34 31 36 42 43 42 41 36 34 36 40 42
11 13 14 14 16 17 18 17 19 20 22 24 25 26 25 26 26 25 25 23 25 20 19 20 21 21 22 20 29 31 27 28 33 28 32 37 40 44 44 39 37 36 33
11 14 15 16 17 18 19 19 19 20 23 25 25 24 24 25 25 25 26 27 29 33 32 32 29 31 34 33 28 33 31 34 33 32 24 25 29 31 29 30 31 32 34